sat.trackr.live / text

‹ back to catalog

STARLINK-35427

NORAD 66110 · 2025-236AA

PAYLOAD ACTIVE UNKNOWN

§ Identity

Operator
Country
US
Launch date
2025-10-19
Launch site
AFWTR
Launch vehicle
Mass (kg)
RCS (m²)

Purposes: comms

External: N2YO · Heavens-Above · Gunter

§ Orbital elements

Epoch: 2026-05-25T04:46:56.922816Z

Period
94.10 min
Inclination
53.1571°
Eccentricity
0.0001259
Mean motion
15.30207680 rev/d
Perigee alt
474.3 km
Apogee alt
476.1 km
Semi-major
6,853.3 km
B*
6.3803e-4
RAAN
108.8397°
Arg perigee
90.2641°
Mean anomaly
269.8504°
Rev number
3,465

§ Raw data

STARLINK-354271 66110U 25236AA  26145.19926994  .00018589  00000+0  63803-3 0  99922 66110  53.1571 108.8397 0001259  90.2641 269.8504 15.30207680 34657

JSON: /api/v1/satellites/66110 · /tle

For live sub-satellite position, see the globe view (requires WebGL).

§ Visibility from observer

Set your observer location to see the next 7 days of passes ≥ 10°. The values pass through the URL so the page stays shareable.

No JS? Fill the form by hand. The geolocation button needs JavaScript.